Theta_e
310 310 310 311 309 308 308 307 308 308 309 309 308 309 309 309 315 314 312 310 308 313 314 314 313 313 314 311 306 302 303 305 309 310 309 308 308 309 311 311 311 311 314 316 341
310 310 309 308 307 305 307 307 307 308 308 309 309 308 309 310 317 313 309 309 309 312 314 314 313 312 307 307 305 302 302 305 305 307 308 306 305 306 309 309 309 311 311 313 323
310 308 307 304 303 302 306 307 308 308 308 310 310 309 309 315 313 312 311 312 312 313 315 314 311 309 308 307 307 305 307 306 307 307 307 308 306 307 307 307 307 309 310 310 324
313 306 307 305 302 303 306 307 307 307 308 311 311 309 312 317 314 314 312 313 313 314 314 312 309 310 310 311 308 311 308 307 309 310 308 309 307 307 307 307 308 308 309 310 319
313 307 307 306 305 306 307 307 307 307 308 310 310 309 314 316 318 316 312 313 313 314 314 311 311 311 312 310 310 309 310 310 309 308 307 307 308 308 309 308 307 307 308 309 309
315 311 306 307 307 307 308 308 308 308 308 310 312 312 313 311 314 315 312 313 313 314 313 312 312 312 311 311 311 310 309 309 309 309 308 310 309 308 310 309 308 308 307 307 307
315 314 306 307 308 309 309 309 310 310 310 311 314 316 311 313 315 315 313 313 313 313 312 313 313 314 312 312 310 310 312 309 309 310 309 308 310 309 309 309 308 308 308 307 307
313 314 311 305 307 309 309 309 311 313 313 312 316 317 313 314 316 316 316 315 314 314 313 313 312 312 312 311 311 312 310 311 310 311 312 311 312 312 313 310 313 310 309 309 307
313 314 313 305 306 308 310 312 312 313 314 316 316 316 314 317 316 315 315 315 315 313 313 312 312 311 312 312 312 310 314 313 313 311 313 312 314 313 314 314 311 309 310 309 308
313 313 313 305 307 310 312 312 313 316 315 315 316 310 311 312 314 314 314 314 313 312 311 310 308 311 308 310 315 314 313 313 314 314 313 314 314 314 313 312 313 312 310 308 308
313 313 312 305 309 313 312 311 307 307 312 312 311 312 312 314 313 313 312 312 312 311 311 309 311 312 311 310 313 312 313 314 314 313 314 315 314 315 313 312 311 311 310 309 307
314 314 309 306 311 311 311 310 311 311 310 310 311 312 313 313 313 312 312 311 312 312 311 310 311 311 310 310 311 312 313 314 313 313 313 314 314 314 314 312 312 313 312 311 308
314 314 308 308 311 311 311 311 311 312 310 312 312 313 313 312 313 312 311 310 312 312 309 308 309 312 312 313 313 313 313 314 314 314 314 315 318 317 314 312 312 312 312 311 310
314 314 309 310 310 310 309 311 312 313 307 310 309 311 310 308 312 312 312 312 311 311 312 312 310 313 312 313 313 314 314 317 319 318 320 316 322 317 315 314 312 312 311 312 312
314 315 310 310 310 309 311 311 312 313 314 310 309 310 308 310 310 312 312 311 311 312 316 314 314 313 313 314 316 317 318 319 316 315 313 315 318 316 314 313 311 311 312 312 312
313 316 314 311 310 310 312 313 314 311 314 311 308 310 309 310 310 311 312 310 311 316 315 315 313 312 312 318 318 316 313 313 312 312 317 315 317 315 315 314 313 312 312 312 311
313 316 316 316 313 315 314 312 315 312 312 312 311 310 310 310 310 312 312 309 309 311 312 313 313 312 316 316 312 311 313 318 307 316 316 316 314 317 315 314 314 312 311 311 310
312 316 316 315 315 314 312 309 314 313 315 312 313 310 311 310 310 311 311 309 310 313 309 315 316 313 313 314 314 313 316 318 310 309 312 311 313 313 313 314 313 312 312 311 310
313 316 315 316 314 313 308 312 313 315 315 317 314 312 311 310 310 308 309 309 310 313 313 316 316 312 312 312 313 315 316 314 318 310 317 314 312 311 311 312 311 311 312 312 310
313 313 315 315 313 312 310 313 314 313 318 318 317 312 313 311 309 308 309 311 313 314 313 315 317 313 314 314 314 315 314 315 320 318 317 315 314 315 312 310 311 313 310 310 310
312 311 315 314 315 309 314 314 314 316 318 319 316 312 311 310 310 309 310 310 311 313 313 312 312 315 314 315 314 314 316 316 316 316 320 318 314 309 311 311 310 311 311 310 311
307 311 314 313 312 307 314 316 316 318 318 318 314 311 313 310 309 309 310 310 310 313 312 311 313 318 316 314 313 312 314 316 319 319 319 319 317 312 312 310 312 313 314 312 311
305 306 314 313 311 311 312 315 317 318 318 317 317 315 314 311 316 309 310 310 310 312 310 311 316 317 315 312 312 317 316 314 316 316 318 318 315 311 312 312 312 312 312 309 308
307 312 308 305 307 313 313 313 316 316 317 315 316 313 315 317 315 314 314 310 311 311 313 315 316 317 318 316 314 315 315 315 316 317 315 315 314 312 312 312 308 308 310 309 306
305 309 309 309 309 310 312 313 316 315 316 315 317 316 317 317 316 313 310 311 312 311 314 313 318 316 313 314 313 313 314 314 314 314 317 315 315 313 313 310 308 307 308 308 306
308 308 306 308 308 312 311 312 315 313 315 314 317 314 315 316 316 316 312 313 312 310 313 312 317 315 313 312 312 313 313 314 315 315 316 316 316 309 308 307 307 308 308 306 305
309 309 309 307 308 311 309 311 313 311 311 313 311 313 315 314 312 311 311 312 311 309 309 314 314 316 316 311 312 311 313 313 311 311 310 310 309 307 307 307 306 306 306 304 304
Wind_Speed
21 19 17 15 13 11 9 10 12 15 17 16 15 17 17 13 5 5 3 3 5 10 12 9 11 10 4 4 4 4 4 0 3 2 5 5 5 4 3 6 3 5 2 3 3
25 21 19 15 12 10 9 10 12 14 16 16 15 15 17 10 4 4 4 4 5 10 11 12 7 8 4 4 3 5 3 6 4 3 5 7 4 7 4 6 4 6 6 3 2
28 23 21 17 11 8 8 9 11 13 15 15 15 13 13 5 2 3 4 5 6 8 8 6 5 3 5 3 4 0 3 3 5 4 1 4 7 3 4 5 9 7 5 6 2
31 26 21 18 13 8 8 9 11 12 13 14 15 11 6 3 3 2 2 2 4 7 8 4 6 4 3 3 2 1 7 4 5 4 5 4 4 8 5 8 8 7 5 4 4
35 28 21 17 14 10 9 10 11 12 12 13 14 9 2 4 0 1 1 1 3 5 5 3 4 2 2 2 4 2 2 5 8 10 7 6 8 8 9 11 10 10 7 7 8
37 31 20 16 14 12 11 12 13 13 10 10 11 8 2 4 2 3 5 5 6 4 3 1 1 1 1 3 2 4 6 8 8 12 6 6 8 7 10 8 8 8 10 10 9
40 35 20 14 13 13 13 15 14 12 8 7 9 7 2 3 2 3 8 9 8 7 4 6 2 2 2 6 2 4 7 7 3 2 6 3 7 5 8 6 8 9 8 9 11
43 39 22 13 12 12 15 17 14 7 3 5 6 3 2 3 6 11 11 17 18 17 15 16 11 2 3 2 7 6 3 5 6 5 5 0 9 8 17 5 15 10 7 7 9
45 43 24 11 11 12 16 16 9 5 5 4 3 3 2 4 5 7 9 10 14 8 8 7 3 3 2 2 5 3 8 6 8 5 4 2 12 11 16 20 11 9 8 7 9
47 44 24 9 9 12 14 8 5 3 4 3 3 3 3 4 5 10 15 17 7 3 6 3 4 1 2 3 9 12 8 9 11 4 8 14 16 20 7 10 14 11 9 6 7
49 43 21 8 9 9 13 3 6 4 3 0 5 3 5 11 5 11 12 1 1 1 3 2 1 7 13 13 16 10 9 15 14 13 5 16 16 25 9 8 11 10 9 8 9
50 40 18 9 6 9 12 4 3 2 6 2 3 5 9 3 2 8 15 6 2 2 4 4 6 12 7 8 10 12 13 17 16 13 7 12 18 26 15 12 13 15 12 9 6
49 34 16 8 4 7 8 6 11 0 1 6 3 3 5 2 2 3 6 5 1 3 8 5 7 5 10 13 13 14 10 15 13 4 6 7 22 23 16 16 14 13 13 9 9
46 29 15 6 3 7 2 9 13 1 4 4 3 2 6 4 3 1 6 1 2 7 4 6 4 8 12 11 8 9 4 6 5 4 6 4 15 21 9 17 13 11 10 13 12
46 23 11 10 5 2 7 17 1 3 2 6 3 2 6 4 3 2 2 3 4 6 2 8 5 16 16 6 3 6 4 6 7 10 5 7 6 9 3 8 10 10 14 12 10
45 18 11 9 8 5 17 6 2 5 2 5 3 7 5 3 3 4 3 3 2 2 3 9 4 5 6 4 3 2 4 13 4 2 6 12 12 8 4 7 6 7 9 9 8
44 13 13 14 8 20 13 3 5 4 5 5 4 6 3 5 4 3 4 8 1 5 5 9 4 6 4 3 3 6 5 4 5 3 6 2 5 13 9 12 9 10 8 6 7
40 8 20 22 16 11 3 5 4 1 5 6 6 6 4 4 5 3 5 5 3 3 3 4 16 2 1 5 8 7 6 3 5 3 4 6 6 6 10 13 9 7 6 4 7
33 10 20 28 12 7 6 5 5 2 4 6 8 2 3 2 4 6 3 4 5 7 1 5 10 11 15 20 3 1 4 1 5 6 7 5 5 9 14 13 10 9 5 6 7
19 9 17 24 8 5 5 3 3 3 5 3 3 1 7 8 4 6 3 5 3 6 4 5 19 3 1 3 7 7 4 1 3 4 6 5 4 9 7 8 6 5 7 7 5
7 4 19 22 5 5 3 4 4 5 3 3 4 5 5 6 3 3 7 6 1 3 7 4 6 9 8 4 4 1 3 5 3 3 4 5 5 7 8 8 6 6 6 6 7
8 3 22 22 4 2 1 4 5 4 4 4 2 2 3 5 5 4 6 6 6 1 7 5 4 8 16 20 10 6 6 5 4 3 5 5 9 8 18 3 3 4 7 6 4
3 3 11 10 4 4 6 6 4 6 5 3 3 2 3 3 7 4 7 6 5 4 5 3 3 8 6 1 2 2 4 7 10 6 17 14 8 2 1 6 7 13 6 5 8
3 4 4 5 1 3 4 4 5 6 5 6 7 3 4 10 9 9 20 9 3 8 22 8 4 8 12 14 14 20 19 15 15 9 15 18 31 17 19 19 13 16 17 12 8
3 1 1 4 3 4 2 4 4 7 3 7 4 2 12 11 20 8 5 17 13 8 2 2 7 9 12 18 21 24 25 24 22 24 19 26 25 20 15 13 16 15 14 13 11
2 3 3 4 3 2 2 3 4 8 5 9 4 17 15 13 16 25 15 18 10 2 2 3 5 6 12 21 18 23 21 18 22 24 25 27 24 11 15 10 15 16 11 10 12
7 4 1 4 3 3 3 4 7 15 8 6 13 15 14 15 10 19 23 23 17 10 3 3 3 4 17 10 18 9 4 1 4 5 6 14 20 21 24 24 18 17 14 14 17
Wind_Direction
0 356 354 351 348 347 352 0 3 2 4 3 3 2 352 356 28 31 17 22 10 18 24 35 21 34 65 62 43 125 61 216 258 280 253 292 325 286 283 277 309 260 238 272 240
2 359 355 350 346 343 349 358 1 1 2 360 355 346 351 354 53 23 20 46 28 19 24 28 8 4 44 27 28 77 106 228 222 264 293 314 293 266 259 259 253 287 293 312 10
3 1 0 358 352 351 353 354 355 353 357 357 354 348 348 7 57 313 25 51 30 14 19 27 32 54 56 12 2 251 190 211 266 260 324 277 307 248 233 287 228 226 256 291 166
7 5 8 9 10 13 3 351 345 342 349 354 356 351 358 23 92 277 41 30 6 8 23 14 25 53 62 12 305 294 252 226 288 289 320 260 276 300 224 237 245 233 243 269 264
13 8 11 18 23 19 6 350 344 341 344 350 3 5 31 45 332 303 235 292 338 2 13 33 40 102 26 246 314 180 275 292 264 284 256 245 234 231 266 265 268 266 251 247 271
12 9 5 10 13 9 359 349 341 333 339 345 2 8 39 83 291 273 253 273 281 306 317 115 350 251 264 256 143 228 260 264 263 259 256 246 257 146 253 246 259 264 255 255 244
10 6 1 359 0 358 350 343 341 326 331 345 358 13 37 186 246 308 267 271 276 269 295 284 254 86 15 312 259 278 303 335 272 263 274 209 300 220 269 278 263 280 275 263 242
6 4 359 353 350 347 341 338 342 334 353 359 5 22 221 220 284 285 274 272 273 271 264 283 282 191 165 284 351 342 48 350 283 313 285 204 282 286 292 330 310 293 293 283 273
5 1 358 351 343 344 340 343 8 65 45 33 55 42 311 283 287 327 294 261 272 288 280 259 106 190 57 52 350 341 277 263 298 180 283 170 288 280 314 302 283 279 280 280 297
3 1 357 354 349 352 347 18 51 58 18 44 25 27 332 301 341 316 296 270 261 322 327 108 51 116 46 97 267 279 267 259 271 268 287 287 277 276 262 267 272 271 272 252 275
1 1 1 4 359 12 4 6 14 356 48 245 278 249 289 319 345 349 1 41 170 57 258 6 80 243 238 217 249 265 256 261 272 272 271 274 281 279 277 246 265 263 258 250 222
0 1 9 8 33 37 34 61 73 258 319 286 242 272 275 272 325 339 15 21 43 313 314 339 243 256 311 288 266 264 261 264 270 269 221 271 275 278 281 256 243 258 246 244 193
360 360 11 7 84 34 55 56 354 27 113 300 210 253 275 151 150 315 25 343 17 263 282 236 261 318 319 306 287 277 259 271 264 285 250 279 277 285 284 260 258 240 239 240 216
359 357 11 38 62 356 55 345 338 138 59 309 353 282 359 339 15 13 14 295 299 285 285 259 261 311 314 299 273 286 298 309 290 329 278 131 288 287 266 262 245 246 233 236 235
357 354 0 18 344 357 329 331 353 101 357 311 326 317 341 60 259 294 344 356 248 271 81 258 287 312 310 248 303 260 307 275 271 272 285 223 259 275 165 272 257 234 240 241 239
354 352 352 352 337 345 338 350 121 45 287 332 329 329 5 291 274 288 290 19 286 246 224 252 270 235 226 276 266 356 336 317 313 212 250 214 204 271 226 228 253 239 235 248 239
351 7 10 359 332 333 342 65 34 107 6 311 314 320 320 265 286 268 311 319 274 356 309 301 251 268 209 258 319 57 358 300 332 210 237 295 282 256 281 270 252 259 261 253 253
350 32 17 359 341 338 25 53 74 287 276 308 295 287 267 343 263 294 282 294 262 195 322 309 314 224 110 204 289 285 184 220 253 244 268 324 252 260 251 268 290 276 261 294 321
349 350 10 359 9 8 65 57 191 237 304 295 313 298 282 320 274 360 269 248 245 173 195 325 285 298 276 279 214 180 200 209 265 234 267 228 297 290 260 272 278 271 282 318 325
342 337 7 355 3 40 72 227 221 224 317 313 299 298 313 324 332 349 286 246 253 191 186 242 295 269 333 272 219 162 167 255 207 270 262 261 242 236 279 285 298 337 344 314 317
4 27 360 359 353 45 115 243 279 288 8 291 265 283 280 308 274 262 255 291 202 265 192 257 218 277 320 251 204 129 249 224 251 226 269 288 242 223 240 258 286 298 315 320 342
353 20 360 358 48 19 25 305 291 290 6 286 271 247 296 316 278 257 252 248 304 341 284 229 252 279 285 283 302 230 242 206 232 244 241 256 251 264 271 259 174 263 288 316 326
8 280 359 14 68 349 320 308 293 325 319 316 295 39 293 296 332 247 265 274 271 345 270 192 247 298 297 85 198 253 219 213 235 252 249 262 260 73 222 305 326 323 315 315 320
32 355 338 32 95 95 333 284 308 318 297 13 310 355 358 317 275 279 286 294 305 270 284 219 228 238 281 277 295 285 267 255 257 257 275 251 272 276 279 297 330 315 303 312 316
35 331 189 315 341 326 211 270 285 329 282 323 274 280 343 310 309 262 253 295 298 288 51 205 259 256 250 271 283 274 275 273 262 263 260 276 271 273 286 296 298 290 280 286 298
60 24 352 279 290 303 295 263 277 355 309 301 261 321 309 288 275 293 296 295 277 316 180 231 274 267 275 285 276 281 277 265 266 265 265 265 273 273 268 266 283 272 257 266 277
4 359 325 279 308 301 237 279 321 325 280 283 314 299 289 283 265 283 277 274 262 261 227 230 267 279 294 303 305 290 299 260 300 288 278 286 289 296 289 285 275 269 261 265 271